User: anonymous   Login
Location: Lombard
(41.8800°N, 88.0080°W)
Time: 13:15:27
(UTC-05:00)
Language:

ITAMSAT 1 - Orbit

View from above orbital plane
View from above orbital plane
View from above satellite
View from above satellite

Ground track
Ground track

The orbit data is extracted from the following two-line orbital elements,

1 22826U 93061D   22137.34255306  .00000142  00000-0  72404-4 0  9990
2 22826  98.8838 167.5998 0009928 125.2799 234.9312 14.30511766494212
Epoch (UTC): 17 May 2022 08:13:16
Eccentricity: 0.0009928
inclination: 98.8838°
perigee height: 783 km
apogee height: 797 km
right ascension of ascending node: 167.5998°
argument of perigee: 125.2799°
revolutions per day: 14.30511766
mean anomaly at epoch: 234.9312°
orbit number at epoch: 49421

The dashed part of the orbit path shows where the satellite is in the earth's shadow,  

DLR